Regional Weather Roundup
Issued by NWS Grand Forks, ND

Home | Current Version | Previous Version | Text Only | Print | Product List | Glossary Off
Versions: 1 2 3 4 5 6 7 8 9 10 11 12 13 14 15 16 17 18 19 20 21 22 23 24 25 26 27 28 29 30 31 32 33 34 35 36 37 38 39 40 41 42 43 44 45 46 47 48 49 50

000
ASUS43 KFGF 230510
RWRFGF
PRAIRIE TO PINES  WEATHER ROUNDUP
NATIONAL WEATHER SERVICE EASTERN NORTH DAKOTA/GRAND FORKS ND
1200 AM CDT SAT MAY 23 2015

 **SATELLITE DATA USED TO AUGMENT SKY COVER AT AUTOMATED STATIONS**
 *****  WEATHER ACROSS EASTERN NORTH DAKOTA  *****

CITY           SKY/WX    TMP DP  RH WIND       PRES   REMARKS
GRAND FORKS    CLEAR     53  43  68 S5        30.11F
GRAND FRKS AFB CLEAR     54  44  67 SW3       30.12S
GRAND FRKS NWS   N/A     57 N/A N/A S2          N/A
DEVILS LAKE    CLEAR     55  43  62 SE6       30.11S
FARGO          FAIR      62  39  42 SE8       30.13S
WAHPETON ARPT  MOCLDY    57  36  44 SE3       30.15R
$$

 ***** WEATHER ACROSS CENTRAL AND WESTERN NORTH DAKOTA  *****

CITY           SKY/WX    TMP DP  RH WIND       PRES   REMARKS
BISMARCK       PTCLDY    58  39  49 S3        30.12R
MINOT          MOCLDY    59  41  51 SE5       30.08S
JAMESTOWN      PTCLDY    57  39  51 SE8       30.12S
MINOT AFB      MOCLDY    55  42  60 S3        30.07S
GARRISON         N/A     55  42  61 SE6       30.10R
WILLISTON      PTCLDY    60  37  42 SE5       30.07R
DICKINSON      PTCLDY    47  34  60 S10       30.08S
HETTINGER      PTCLDY    49  38  65 SE7       30.11S
$$

 *****  OTHER AIRPORT OBSERVATIONS IN OUR AREA  *****

CITY           SKY/WX    TMP DP  RH WIND       PRES   REMARKS
WALHALLA       FAIR      59  36  41 SW5       30.11R
GRAFTON AIRPOR FAIR      55  46  71 S5        30.12S
VALLEY CITY AR FAIR      54  36  50 S3        30.14S
CANDO          FAIR      50  41  71 S7        30.12R
CAVALIER APRT  FAIR      55  46  71 SW6       30.10S
GWINNER        NOT AVBL
SHEYENNE NWR     N/A     51  38  61 E3        29.95S
ROLLA          FAIR      50  32  50 SW5       30.13R
 ***** THE ABOVE OBSERVATIONS ARE NON NWS ARE NOT QUALITY
       CONTROLLED AND MAY MIS-REPORT RAIN FOR SNOW...
$$

  *****  WEATHER ACROSS NORTHERN MINNESOTA  *****

CITY           SKY/WX    TMP DP  RH WIND       PRES   REMARKS
FLAG ISLAND    NOT AVBL
WARROAD        PTCLDY    63  45  51 SW6       30.11S
ROSEAU         FAIR      61  45  55 SW8       30.11S
HALLOCK        CLEAR     55  43  62 SW10      30.10S
THF RVR FALLS  CLEAR     59  37  44 CALM      30.14S
BAUDETTE       PTCLDY    55  42  61 S6        30.10F
WASKISH        CLEAR     61  39  44 CALM      30.13S
CROOKSTON      CLEAR     61  39  44 SE5       30.14S
STEPHEN NDAWN    N/A     55  45  67 SW6         N/A
GREENBUSH NDAW   N/A     59  45  58 SW7         N/A
$$
  *****  WEATHER ACROSS CENTRAL AND WEST MINNESOTA  *****

CITY           SKY/WX    TMP DP  RH WIND       PRES   REMARKS
FOSSTON        CLEAR     52  43  71 CALM      30.16S
BEMIDJI        CLEAR     53  40  61 CALM      30.16R
PARK RAPIDS    CLEAR     57  39  51 CALM      30.17S
ELBOW LAKE     FAIR      61  38  43 E6        30.16S
WADENA         PTCLDY    55  39  54 CALM      30.17S
DETROIT LAKES  CLEAR     57  45  62 CALM      30.18R
MOORHEAD       FAIR      61  39  44 SE5       30.15S
FERGUS FALLS   MOCLDY    61  37  41 SE6       30.16S
MORRIS MN      MOCLDY    57  39  51 SE8       30.16R
STAPLES        PTCLDY    54  41  62 CALM      30.18S
$$
  *****  WEATHER ELSEWHERE ACROSS MINNESOTA  *****

CITY           SKY/WX    TMP DP  RH WIND       PRES   REMARKS
DULUTH         CLEAR     57  36  45 SW8       30.18S
INTRNTL FALLS  PTCLDY    58  40  51 SW3       30.11S
ELY            CLEAR     54  36  50 SW3       30.14S
CLOQUET        CLEAR     48  41  76 SW3       30.18F
WHEATON        MOCLDY    57  39  51 SE9       30.17R
BRAINERD       CLEAR     50  43  77 CALM      30.19S
HIBBING        CLEAR     45  36  70 CALM      30.16S
ALEXANDRIA     MOCLDY    58  37  45 SE7       30.19S
SAINT CLOUD    PTCLDY    49  44  83 CALM      30.19S
MINNEAPOLIS    CLOUDY    61  39  44 SE5       30.20S
$$

  *****  WEATHER ACROSS SOUTH DAKOTA  *****

CITY           SKY/WX    TMP DP  RH WIND       PRES   REMARKS
SIOUX FALLS    CLOUDY    56  46  69 E5        30.19S
BROOKINGS      PTCLDY    54  43  66 CALM      30.22S
WATERTOWN      MOCLDY    52  43  71 CALM      30.20S
HURON          PTCLDY    53  42  66 CALM      30.18F
SISSETON         N/A     60  46  59 W13       30.15R
ABERDEEN       PTCLDY    54  44  69 S9        30.18R
MITCHELL       CLOUDY    55  45  68 SW3       30.20R
PIERRE         CLEAR     47  41  80 SE12      30.15S
MOBRIDGE       CLEAR     54  45  71 S8        30.12R
RAPID CITY     CLOUDY    49  43  80 S10       30.08F
$$

  *****  SOME WEATHER IN NEARBY STATES *****

CITY           SKY/WX    TMP DP  RH WIND       PRES   REMARKS
GLASGOW MT     MOCLDY    60  42  51 E9        29.99R
GREAT FALLS MT PTCLDY    54  48  80 NE10      29.97R
CHEYENNE WY    FOG       44  43  96 SE12      30.05S VSB 1
SCOTTSBLUFF NE CLOUDY    46  45  96 SE12      30.07F
OMAHA NE       CLOUDY    60  49  66 S8        30.20S
DES MOINES IA  MOCLDY    61  48  62 S3        30.21F
DAVENPORT IA   CLOUDY    61  44  53 E8        30.23F
CHICAGO IL     MOCLDY    53  32  44 E8        30.29S
EAU CLAIRE WI  PTCLDY    47  40  76 CALM      30.21S
LA CROSSE WI   MOCLDY    55  44  66 SE3       30.22S
$$

  *****  SOME NATIONAL WEATHER *****

CITY           SKY/WX    TMP DP  RH WIND       PRES   REMARKS
LA GUARDIA NY  CLEAR     59  34  39 N18       30.16R
RALEIGH NC     PTCLDY    52  47  83 CALM      30.29R
ATLANTA GA     CLEAR     66  53  63 CALM      30.27R
NEW ORLEANS LA PTCLDY    74  67  78 SE3       30.17S
OKLAHOMA CITY  DRIZZLE   57  55  93 SE10      30.14F FOG
ALBUQUERQUE NM PTCLDY    63  34  33 S10       29.96R
SALT LAKE CITY CLOUDY    56  43  61 E7        29.89F
LOS ANGELES CA CLOUDY    61  54  77 W14       30.07R
BOISE ID       CLOUDY    64  49  57 CALM      29.86R
SEATTLE WA     CLOUDY    55  49  80 S7        30.07R
$$

*** WEATHER ACROSS MANITOBA...SASKATCHEWAN AND ONTARIO ***
                ***ONTARIO***

CITY           SKY/WX    TMP DP  RH WIND       PRES   REMARKS
GERALDTON      PTCLDY    45  21  39 SW8       30.08F
THUNDER BAY    CLEAR     41  32  70 NE6       30.13F
SIOUX LOOKOUT  PTCLDY    59  41  51 SW5       30.02S
TORONTO        CLEAR     41  25  52 VRB2      30.32R
BIG TROUT LK   CLEAR     43  34  70 S3        29.86F
PICKLE LAKE    NOT AVBL
DRYDEN         PTCLDY    63  39  42 W10       30.05R
KENORA         PTCLDY    59  41  51 SW8       30.07S
$$
                *** MANITOBA***

CITY           SKY/WX    TMP DP  RH WIND       PRES   REMARKS
BRANDON        PTCLDY    59  37  44 SW7       30.08S
DAUPHIN        CLEAR     64  36  34 SW10      30.02S
ISLAND LAKE    CLEAR     54  37  54 W2        29.93S
PILOT MOUND      N/A     50  37  62 S12         N/A
THE PAS        PTCLDY    64  37  36 NW6       29.93R
THOMPSON       MOCLDY    50  39  66 NE12G21   29.99R
WINNIPEG       MOCLDY    68  39  34 SW12      30.07R
LYNN LAKE      PTCLDY    48  36  61 NE17G23   30.07R
CHURCHILL      CLOUDY    32  28  86 N16       30.12S WCI  21
GILLAM         LGT RAIN  36  32  87 NE12G17   30.06R
$$
                ***SASKATCHEWAN***

CITY           SKY/WX    TMP DP  RH WIND       PRES   REMARKS
ESTEVAN        PTCLDY    54  41  62 S7        30.08R
KINDERSLEY     PTCLDY    61  28  29 SE15      30.04R
LLOYDMINSTER   CLEAR     63  23  22 CALM      30.02S
PRINCE ALBERT  PTCLDY    54  37  54 SW2       30.00R
REGINA         PTCLDY    55  36  47 SE9       30.07R
YORKTON        CLEAR     61  36  39 S7        30.05R HAZE
N. BATTLEFORD  PTCLDY    59  32  36 SE5       30.04R
LA RONGE       PTCLDY    63  36  36 NE7       29.97R
SASKATOON      PTCLDY    61  34  36 S7        30.04S
SWIFT CURRENT  PTCLDY    57  32  38 SE9       30.04R
$$
NOTE: THESE ARE AUTOMATED STATIONS WITH LIMITED QUALITY CONTROL
      "FAIR" INDICATES FEW OR NO CLOUDS BELOW 12,000 FEET WITH NO
      SIGNIFICANT WEATHER AND/OR OBSTRUCTIONS TO VISIBILITY.
      SKY/WX - SKY CONDITION AND SIGNIFICANT WEATHER.
      TMP - AIR TEMPERATURE.    DP   - DEWPOINT TEMPERATURE.
      RH  - RELATIVE HUMIDITY.  PRES - PRESSURE.
      HX  - HEAT INDEX.         WCI  - WIND CHILL INDEX.
$


USA.gov is the U.S. government's official web portal to all federal, state and local government web resources and services.